Year,Month,Day,Hour,Minute,Value (Times are PST for temperature in C)
2018,10,21,00,00,6.90
2018,10,21,00,01,6.90
2018,10,21,00,02,6.90
2018,10,21,00,03,6.90
2018,10,21,00,04,7.00
2018,10,21,00,05,7.00
2018,10,21,00,06,7.00
2018,10,21,00,07,7.00
2018,10,21,00,08,7.00
2018,10,21,00,09,7.00
2018,10,21,00,10,7.00
2018,10,21,00,11,7.00
2018,10,21,00,12,7.00
2018,10,21,00,13,7.10
2018,10,21,00,14,7.00
2018,10,21,00,15,7.00
2018,10,21,00,16,7.10
2018,10,21,00,17,7.00
2018,10,21,00,18,7.00
2018,10,21,00,19,7.00
2018,10,21,00,20,7.00
2018,10,21,00,21,7.00
2018,10,21,00,22,7.00
2018,10,21,00,23,6.90
2018,10,21,00,24,6.90
2018,10,21,00,25,6.90
2018,10,21,00,26,6.90
2018,10,21,00,27,6.90
2018,10,21,00,28,6.90
2018,10,21,00,29,6.90
2018,10,21,00,30,6.90
2018,10,21,00,31,6.90
2018,10,21,00,32,6.90
2018,10,21,00,33,6.90
2018,10,21,00,34,6.90
2018,10,21,00,35,6.90
2018,10,21,00,36,6.90
2018,10,21,00,37,6.90
2018,10,21,00,38,6.90
2018,10,21,00,39,6.90
2018,10,21,00,40,6.90
2018,10,21,00,41,6.90
2018,10,21,00,42,6.90
2018,10,21,00,43,6.90
2018,10,21,00,44,6.90
2018,10,21,00,45,6.90
2018,10,21,00,46,6.90
2018,10,21,00,47,6.90
2018,10,21,00,48,6.90
2018,10,21,00,49,6.90
2018,10,21,00,50,6.90
2018,10,21,00,51,6.90
2018,10,21,00,52,6.90
2018,10,21,00,53,6.90
2018,10,21,00,54,6.90
2018,10,21,00,55,6.90
2018,10,21,00,56,6.90
2018,10,21,00,57,6.90
2018,10,21,00,58,6.90
2018,10,21,00,59,6.90
2018,10,21,01,00,6.90
2018,10,21,01,01,6.90
2018,10,21,01,02,6.90
2018,10,21,01,03,6.90
2018,10,21,01,04,6.90
2018,10,21,01,05,6.90
2018,10,21,01,06,6.90
2018,10,21,01,07,6.90
2018,10,21,01,08,6.90
2018,10,21,01,09,6.90
2018,10,21,01,10,6.90
2018,10,21,01,11,6.90
2018,10,21,01,12,6.90
2018,10,21,01,13,6.90
2018,10,21,01,14,6.90
2018,10,21,01,15,6.90
2018,10,21,01,16,6.90
2018,10,21,01,17,6.90
2018,10,21,01,18,6.90
2018,10,21,01,19,6.90
2018,10,21,01,20,7.00
2018,10,21,01,21,7.00
2018,10,21,01,22,7.00
2018,10,21,01,23,7.00
2018,10,21,01,24,7.00
2018,10,21,01,25,7.10
2018,10,21,01,26,7.10
2018,10,21,01,27,7.10
2018,10,21,01,28,7.10
2018,10,21,01,29,7.10
2018,10,21,01,30,7.10
2018,10,21,01,31,7.10
2018,10,21,01,32,7.10
2018,10,21,01,33,7.00
2018,10,21,01,34,7.00
2018,10,21,01,35,7.00
2018,10,21,01,36,7.00
2018,10,21,01,37,7.00
2018,10,21,01,38,6.90
2018,10,21,01,39,6.90
2018,10,21,01,40,6.90
2018,10,21,01,41,6.90
2018,10,21,01,42,6.90
2018,10,21,01,43,6.90
2018,10,21,01,44,6.80
2018,10,21,01,45,6.80
2018,10,21,01,46,6.80
2018,10,21,01,47,6.80
2018,10,21,01,48,6.80
2018,10,21,01,49,6.80
2018,10,21,01,50,6.80
2018,10,21,01,51,6.70
2018,10,21,01,52,6.70
2018,10,21,01,53,6.70
2018,10,21,01,54,6.70
2018,10,21,01,55,6.60
2018,10,21,01,56,6.60
2018,10,21,01,57,6.60
2018,10,21,01,58,6.60
2018,10,21,01,59,6.60
2018,10,21,02,00,6.50
2018,10,21,02,01,6.50
2018,10,21,02,02,6.50
2018,10,21,02,03,6.50
2018,10,21,02,04,6.40
2018,10,21,02,05,6.40
2018,10,21,02,06,6.40
2018,10,21,02,07,6.40
2018,10,21,02,08,6.40
2018,10,21,02,09,6.40
2018,10,21,02,10,6.30
2018,10,21,02,11,6.30
2018,10,21,02,12,6.30
2018,10,21,02,13,6.30
2018,10,21,02,14,6.30
2018,10,21,02,15,6.30
2018,10,21,02,16,6.30
2018,10,21,02,17,6.30
2018,10,21,02,18,6.30
2018,10,21,02,19,6.30
2018,10,21,02,20,6.30
2018,10,21,02,21,6.30
2018,10,21,02,22,6.20
2018,10,21,02,23,6.20
2018,10,21,02,24,6.20
2018,10,21,02,25,6.20
2018,10,21,02,26,6.20
2018,10,21,02,27,6.20
2018,10,21,02,28,6.20
2018,10,21,02,29,6.20
2018,10,21,02,30,6.20
2018,10,21,02,31,6.20
2018,10,21,02,32,6.20
2018,10,21,02,33,6.20
2018,10,21,02,34,6.20
2018,10,21,02,35,6.20
2018,10,21,02,36,6.20
2018,10,21,02,37,6.20
2018,10,21,02,38,6.20
2018,10,21,02,39,6.20
2018,10,21,02,40,6.20
2018,10,21,02,41,6.20
2018,10,21,02,42,6.10
2018,10,21,02,43,6.10
2018,10,21,02,44,6.10
2018,10,21,02,45,6.10
2018,10,21,02,46,6.20
2018,10,21,02,47,6.20
2018,10,21,02,48,6.20
2018,10,21,02,49,6.20
2018,10,21,02,50,6.20
2018,10,21,02,51,6.20
2018,10,21,02,52,6.20
2018,10,21,02,53,6.20
2018,10,21,02,54,6.20
2018,10,21,02,55,6.20
2018,10,21,02,56,6.20
2018,10,21,02,57,6.20
2018,10,21,02,58,6.20
2018,10,21,02,59,6.20
2018,10,21,03,00,6.20
2018,10,21,03,01,6.20
2018,10,21,03,02,6.20
2018,10,21,03,03,6.20
2018,10,21,03,04,6.20
2018,10,21,03,05,6.20
2018,10,21,03,06,6.20
2018,10,21,03,07,6.20
2018,10,21,03,08,6.20
2018,10,21,03,09,6.20
2018,10,21,03,10,6.20
2018,10,21,03,11,6.20
2018,10,21,03,12,6.20
2018,10,21,03,13,6.20
2018,10,21,03,14,6.20
2018,10,21,03,15,6.20
2018,10,21,03,16,6.20
2018,10,21,03,17,6.30
2018,10,21,03,18,6.30
2018,10,21,03,19,6.30
2018,10,21,03,20,6.30
2018,10,21,03,21,6.30
2018,10,21,03,22,6.30
2018,10,21,03,23,6.30
2018,10,21,03,24,6.30
2018,10,21,03,25,6.30
2018,10,21,03,26,6.30
2018,10,21,03,27,6.30
2018,10,21,03,28,6.30
2018,10,21,03,29,6.30
2018,10,21,03,30,6.30
2018,10,21,03,31,6.30
2018,10,21,03,32,6.30
2018,10,21,03,33,6.20
2018,10,21,03,34,6.20
2018,10,21,03,35,6.20
2018,10,21,03,36,6.20
2018,10,21,03,37,6.20
2018,10,21,03,38,6.20
2018,10,21,03,39,6.20
2018,10,21,03,40,6.20
2018,10,21,03,41,6.20
2018,10,21,03,42,6.20
2018,10,21,03,43,6.20
2018,10,21,03,44,6.20
2018,10,21,03,45,6.20
2018,10,21,03,46,6.20
2018,10,21,03,47,6.20
2018,10,21,03,48,6.20
2018,10,21,03,49,6.20
2018,10,21,03,50,6.20
2018,10,21,03,51,6.20
2018,10,21,03,52,6.20
2018,10,21,03,53,6.20
2018,10,21,03,54,6.20
2018,10,21,03,55,6.20
2018,10,21,03,56,6.20
2018,10,21,03,57,6.20
2018,10,21,03,58,6.10
2018,10,21,03,59,6.10
2018,10,21,04,00,6.10
2018,10,21,04,01,6.10
2018,10,21,04,02,6.10
2018,10,21,04,03,6.10
2018,10,21,04,04,6.10
2018,10,21,04,05,6.10
2018,10,21,04,06,6.00
2018,10,21,04,07,6.00
2018,10,21,04,08,6.00
2018,10,21,04,09,6.00
2018,10,21,04,10,6.00
2018,10,21,04,11,6.00
2018,10,21,04,12,6.00
2018,10,21,04,13,5.90
2018,10,21,04,14,5.90
2018,10,21,04,15,5.80
2018,10,21,04,16,5.80
2018,10,21,04,17,5.80
2018,10,21,04,18,5.80
2018,10,21,04,19,5.80
2018,10,21,04,20,5.70
2018,10,21,04,21,5.70
2018,10,21,04,22,5.70
2018,10,21,04,23,5.70
2018,10,21,04,24,5.70
2018,10,21,04,25,5.70
2018,10,21,04,26,5.70
2018,10,21,04,27,5.70
2018,10,21,04,28,5.70
2018,10,21,04,29,5.70
2018,10,21,04,30,5.70
2018,10,21,04,31,5.60
2018,10,21,04,32,5.60
2018,10,21,04,33,5.60
2018,10,21,04,34,5.60
2018,10,21,04,35,5.60
2018,10,21,04,36,5.60
2018,10,21,04,37,5.60
2018,10,21,04,38,5.50
2018,10,21,04,39,5.50
2018,10,21,04,40,5.50
2018,10,21,04,41,5.50
2018,10,21,04,42,5.40
2018,10,21,04,43,5.40
2018,10,21,04,44,5.40
2018,10,21,04,45,5.40
2018,10,21,04,46,5.40
2018,10,21,04,47,5.40
2018,10,21,04,48,5.30
2018,10,21,04,49,5.30
2018,10,21,04,50,5.30
2018,10,21,04,51,5.30
2018,10,21,04,52,5.30
2018,10,21,04,53,5.30
2018,10,21,04,54,5.30
2018,10,21,04,55,5.30
2018,10,21,04,56,5.30
2018,10,21,04,57,5.30
2018,10,21,04,58,5.30
2018,10,21,04,59,5.30
2018,10,21,05,00,5.30
2018,10,21,05,01,5.30
2018,10,21,05,02,5.30
2018,10,21,05,03,5.20
2018,10,21,05,04,5.20
2018,10,21,05,05,5.20
2018,10,21,05,06,5.20
2018,10,21,05,07,5.20
2018,10,21,05,08,5.20
2018,10,21,05,09,5.20
2018,10,21,05,10,5.20
2018,10,21,05,11,5.20
2018,10,21,05,12,5.20
2018,10,21,05,13,5.20
2018,10,21,05,14,5.20
2018,10,21,05,15,5.20
2018,10,21,05,16,5.20
2018,10,21,05,17,5.20
2018,10,21,05,18,5.30
2018,10,21,05,19,5.30
2018,10,21,05,20,5.30
2018,10,21,05,21,5.30
2018,10,21,05,22,5.30
2018,10,21,05,23,5.30
2018,10,21,05,24,5.30
2018,10,21,05,25,5.20
2018,10,21,05,26,5.20
2018,10,21,05,27,5.20
2018,10,21,05,28,5.20
2018,10,21,05,29,5.20
2018,10,21,05,30,5.20
2018,10,21,05,31,5.20
2018,10,21,05,32,5.20
2018,10,21,05,33,5.20
2018,10,21,05,34,5.20
2018,10,21,05,35,5.20
2018,10,21,05,36,5.20
2018,10,21,05,37,5.20
2018,10,21,05,38,5.20
2018,10,21,05,39,5.20
2018,10,21,05,40,5.20
2018,10,21,05,41,5.20
2018,10,21,05,42,5.20
2018,10,21,05,43,5.20
2018,10,21,05,44,5.20
2018,10,21,05,45,5.20
2018,10,21,05,46,5.20
2018,10,21,05,47,5.20
2018,10,21,05,48,5.20
2018,10,21,05,49,5.20
2018,10,21,05,50,5.20
2018,10,21,05,51,5.20
2018,10,21,05,52,5.20
2018,10,21,05,53,5.20
2018,10,21,05,54,5.20
2018,10,21,05,55,5.30
2018,10,21,05,56,5.30
2018,10,21,05,57,5.30
2018,10,21,05,58,5.20
2018,10,21,05,59,5.20
2018,10,21,06,00,5.20
2018,10,21,06,01,5.20
2018,10,21,06,02,5.20
2018,10,21,06,03,5.20
2018,10,21,06,04,5.20
2018,10,21,06,05,5.20
2018,10,21,06,06,5.20
2018,10,21,06,07,5.20
2018,10,21,06,08,5.20
2018,10,21,06,09,5.20
2018,10,21,06,10,5.20
2018,10,21,06,11,5.20
2018,10,21,06,12,5.20
2018,10,21,06,13,5.20
2018,10,21,06,14,5.20
2018,10,21,06,15,5.20
2018,10,21,06,16,5.20
2018,10,21,06,17,5.20
2018,10,21,06,18,5.20
2018,10,21,06,19,5.20
2018,10,21,06,20,5.20
2018,10,21,06,21,5.20
2018,10,21,06,22,5.20
2018,10,21,06,23,5.20
2018,10,21,06,24,5.20
2018,10,21,06,25,5.20
2018,10,21,06,26,5.20
2018,10,21,06,27,5.20
2018,10,21,06,28,5.20
2018,10,21,06,29,5.20
2018,10,21,06,30,5.20
2018,10,21,06,31,5.20
2018,10,21,06,32,5.20
2018,10,21,06,33,5.10
2018,10,21,06,34,5.20
2018,10,21,06,35,5.20
2018,10,21,06,36,5.10
2018,10,21,06,37,5.10
2018,10,21,06,38,5.10
2018,10,21,06,39,5.10
2018,10,21,06,40,5.10
2018,10,21,06,41,5.10
2018,10,21,06,42,5.20
2018,10,21,06,43,5.10
2018,10,21,06,44,5.20
2018,10,21,06,45,5.10
2018,10,21,06,46,5.10
2018,10,21,06,47,5.10
2018,10,21,06,48,5.20
2018,10,21,06,49,5.20
2018,10,21,06,50,5.20
2018,10,21,06,51,5.20
2018,10,21,06,52,5.20
2018,10,21,06,53,5.20
2018,10,21,06,54,5.20
2018,10,21,06,55,5.30
2018,10,21,06,56,5.30
2018,10,21,06,57,5.30
2018,10,21,06,58,5.30
2018,10,21,06,59,5.40
2018,10,21,07,00,5.40
2018,10,21,07,01,5.40
2018,10,21,07,02,5.40
2018,10,21,07,03,5.50
2018,10,21,07,04,5.50
2018,10,21,07,05,5.50
2018,10,21,07,06,5.50
2018,10,21,07,07,5.60
2018,10,21,07,08,5.60
2018,10,21,07,09,5.60
2018,10,21,07,10,5.60
2018,10,21,07,11,5.60
2018,10,21,07,12,5.60
2018,10,21,07,13,5.60
2018,10,21,07,14,5.60
2018,10,21,07,15,5.60
2018,10,21,07,16,5.60
2018,10,21,07,17,5.60
2018,10,21,07,18,5.60
2018,10,21,07,19,5.60
2018,10,21,07,20,5.60
2018,10,21,07,21,5.60
2018,10,21,07,22,5.60
2018,10,21,07,23,5.60
2018,10,21,07,24,5.60
2018,10,21,07,25,5.60
2018,10,21,07,26,5.60
2018,10,21,07,27,5.60
2018,10,21,07,28,5.60
2018,10,21,07,29,5.50
2018,10,21,07,30,5.50
2018,10,21,07,31,5.50
2018,10,21,07,32,5.50
2018,10,21,07,33,5.40
2018,10,21,07,34,5.40
2018,10,21,07,35,5.40
2018,10,21,07,36,5.40
2018,10,21,07,37,5.40
2018,10,21,07,38,5.30
2018,10,21,07,39,5.30
2018,10,21,07,40,5.30
2018,10,21,07,41,5.30
2018,10,21,07,42,5.20
2018,10,21,07,43,5.20
2018,10,21,07,44,5.20
2018,10,21,07,45,5.20
2018,10,21,07,46,5.20
2018,10,21,07,47,5.20
2018,10,21,07,48,5.10
2018,10,21,07,49,5.10
2018,10,21,07,50,5.10
2018,10,21,07,51,5.10
2018,10,21,07,52,5.10
2018,10,21,07,53,5.00
2018,10,21,07,54,5.00
2018,10,21,07,55,5.00
2018,10,21,07,56,4.90
2018,10,21,07,57,4.90
2018,10,21,07,58,4.90
2018,10,21,07,59,4.90
2018,10,21,08,00,4.80
2018,10,21,08,01,4.80
2018,10,21,08,02,4.80
2018,10,21,08,03,4.80
2018,10,21,08,04,4.70
2018,10,21,08,05,4.70
2018,10,21,08,06,4.70
2018,10,21,08,07,4.70
2018,10,21,08,08,4.70
2018,10,21,08,09,4.70
2018,10,21,08,10,4.70
2018,10,21,08,11,4.70
2018,10,21,08,12,4.70
2018,10,21,08,13,4.70
2018,10,21,08,14,4.70
2018,10,21,08,15,4.70
2018,10,21,08,16,4.70
2018,10,21,08,17,4.70
2018,10,21,08,18,4.70
2018,10,21,08,19,4.70
2018,10,21,08,20,4.70
2018,10,21,08,21,4.70
2018,10,21,08,22,4.70
2018,10,21,08,23,4.70
2018,10,21,08,24,4.70
2018,10,21,08,25,4.80
2018,10,21,08,26,4.80
2018,10,21,08,27,4.80
2018,10,21,08,28,4.80
2018,10,21,08,29,4.80
2018,10,21,08,30,4.90
2018,10,21,08,31,4.90
2018,10,21,08,32,4.90
2018,10,21,08,33,4.90
2018,10,21,08,34,5.00
2018,10,21,08,35,5.00
2018,10,21,08,36,5.00
2018,10,21,08,37,5.10
2018,10,21,08,38,5.10
2018,10,21,08,39,5.10
2018,10,21,08,40,5.10
2018,10,21,08,41,5.10
2018,10,21,08,42,5.10
2018,10,21,08,43,5.10
2018,10,21,08,44,5.20
2018,10,21,08,45,5.20
2018,10,21,08,46,5.20
2018,10,21,08,47,5.30
2018,10,21,08,48,5.30
2018,10,21,08,49,5.40
2018,10,21,08,50,5.40
2018,10,21,08,51,5.50
2018,10,21,08,52,5.50
2018,10,21,08,53,5.50
2018,10,21,08,54,5.60
2018,10,21,08,55,5.60
2018,10,21,08,56,5.60
2018,10,21,08,57,5.60
2018,10,21,08,58,5.70
2018,10,21,08,59,5.70
2018,10,21,09,00,5.70
2018,10,21,09,01,5.70
2018,10,21,09,02,5.80
2018,10,21,09,03,5.80
2018,10,21,09,04,5.90
2018,10,21,09,05,5.90
2018,10,21,09,06,5.90
2018,10,21,09,07,6.00
2018,10,21,09,08,6.00
2018,10,21,09,09,6.00
2018,10,21,09,10,6.10
2018,10,21,09,11,6.10
2018,10,21,09,12,6.10
2018,10,21,09,13,6.20
2018,10,21,09,14,6.20
2018,10,21,09,15,6.30
2018,10,21,09,16,6.30
2018,10,21,09,17,6.30
2018,10,21,09,18,6.40
2018,10,21,09,19,6.40
2018,10,21,09,20,6.50
2018,10,21,09,21,6.50
2018,10,21,09,22,6.60
2018,10,21,09,23,6.60
2018,10,21,09,24,6.70
2018,10,21,09,25,6.70
2018,10,21,09,26,6.80
2018,10,21,09,27,6.80
2018,10,21,09,28,6.80
2018,10,21,09,29,6.90
2018,10,21,09,30,7.00
2018,10,21,09,31,7.00
2018,10,21,09,32,7.10
2018,10,21,09,33,7.10
2018,10,21,09,34,7.20
2018,10,21,09,35,7.30
2018,10,21,09,36,7.30
2018,10,21,09,37,7.40
2018,10,21,09,38,7.50
2018,10,21,09,39,7.50
2018,10,21,09,40,7.60
2018,10,21,09,41,7.70
2018,10,21,09,42,7.70
2018,10,21,09,43,7.80
2018,10,21,09,44,7.80
2018,10,21,09,45,7.90
2018,10,21,09,46,8.00
2018,10,21,09,47,8.10
2018,10,21,09,48,8.20
2018,10,21,09,49,8.20
2018,10,21,09,50,8.30
2018,10,21,09,51,8.40
2018,10,21,09,52,8.50
2018,10,21,09,53,8.50
2018,10,21,09,54,8.60
2018,10,21,09,55,8.70
2018,10,21,09,56,8.70
2018,10,21,09,57,8.80
2018,10,21,09,58,8.80
2018,10,21,09,59,8.90
2018,10,21,10,00,9.00
2018,10,21,10,01,9.00
2018,10,21,10,02,9.10
2018,10,21,10,03,9.10
2018,10,21,10,04,9.20
2018,10,21,10,05,9.30
2018,10,21,10,06,9.40
2018,10,21,10,07,9.50
2018,10,21,10,08,9.60
2018,10,21,10,09,9.60
2018,10,21,10,10,9.70
2018,10,21,10,11,9.80
2018,10,21,10,12,9.80
2018,10,21,10,13,9.90
2018,10,21,10,14,10.00
2018,10,21,10,15,10.00
2018,10,21,10,16,10.10
2018,10,21,10,17,10.20
2018,10,21,10,18,10.20
2018,10,21,10,19,10.30
2018,10,21,10,20,10.30
2018,10,21,10,21,10.30
2018,10,21,10,22,10.40
2018,10,21,10,23,10.50
2018,10,21,10,24,10.50
2018,10,21,10,25,10.60
2018,10,21,10,26,10.60
2018,10,21,10,27,10.70
2018,10,21,10,28,10.70
2018,10,21,10,29,10.70
2018,10,21,10,30,10.80
2018,10,21,10,31,10.80
2018,10,21,10,32,10.90
2018,10,21,10,33,10.90
2018,10,21,10,34,11.00
2018,10,21,10,35,11.00
2018,10,21,10,36,11.00
2018,10,21,10,37,11.10
2018,10,21,10,38,11.10
2018,10,21,10,39,11.20
2018,10,21,10,40,11.20
2018,10,21,10,41,11.20
2018,10,21,10,42,11.20
2018,10,21,10,43,11.30
2018,10,21,10,44,11.30
2018,10,21,10,45,11.30
2018,10,21,10,46,11.30
2018,10,21,10,47,11.30
2018,10,21,10,48,11.30
2018,10,21,10,49,11.30
2018,10,21,10,50,11.30
2018,10,21,10,51,11.30
2018,10,21,10,52,11.40
2018,10,21,10,53,11.40
2018,10,21,10,54,11.40
2018,10,21,10,55,11.40
2018,10,21,10,56,11.40
2018,10,21,10,57,11.40
2018,10,21,10,58,11.50
2018,10,21,10,59,11.50
2018,10,21,11,00,11.60
2018,10,21,11,01,11.60
2018,10,21,11,02,11.60
2018,10,21,11,03,11.70
2018,10,21,11,04,11.70
2018,10,21,11,05,11.80
2018,10,21,11,06,11.90
2018,10,21,11,07,11.90
2018,10,21,11,08,12.00
2018,10,21,11,09,12.10
2018,10,21,11,10,12.20
2018,10,21,11,11,12.20
2018,10,21,11,12,12.30
2018,10,21,11,13,12.40
2018,10,21,11,14,12.50
2018,10,21,11,15,12.60
2018,10,21,11,16,12.60
2018,10,21,11,17,12.70
2018,10,21,11,18,12.80
2018,10,21,11,19,12.90
2018,10,21,11,20,12.90
2018,10,21,11,21,13.00
2018,10,21,11,22,13.00
2018,10,21,11,23,13.10
2018,10,21,11,24,13.10
2018,10,21,11,25,13.20
2018,10,21,11,26,13.30
2018,10,21,11,27,13.30
2018,10,21,11,28,13.40
2018,10,21,11,29,13.50
2018,10,21,11,30,13.60
2018,10,21,11,31,13.70
2018,10,21,11,32,13.80
2018,10,21,11,33,13.80
2018,10,21,11,34,13.90
2018,10,21,11,35,13.90
2018,10,21,11,36,14.00
2018,10,21,11,37,14.10
2018,10,21,11,38,14.10
2018,10,21,11,39,14.20
2018,10,21,11,40,14.20
2018,10,21,11,41,14.30
2018,10,21,11,42,14.40
2018,10,21,11,43,14.50
2018,10,21,11,44,14.60
2018,10,21,11,45,14.80
2018,10,21,11,46,14.90
2018,10,21,11,47,15.00
2018,10,21,11,48,15.00
2018,10,21,11,49,15.10
2018,10,21,11,50,15.20
2018,10,21,11,51,15.30
2018,10,21,11,52,15.40
2018,10,21,11,53,15.40
2018,10,21,11,54,15.50
2018,10,21,11,55,15.60
2018,10,21,11,56,15.70
2018,10,21,11,57,15.80
2018,10,21,11,58,15.90
2018,10,21,11,59,15.90
2018,10,21,12,00,16.00
2018,10,21,12,01,16.10
2018,10,21,12,02,16.10
2018,10,21,12,03,16.10
2018,10,21,12,04,16.10
2018,10,21,12,05,16.10
2018,10,21,12,06,16.10
2018,10,21,12,07,16.20
2018,10,21,12,08,16.20
2018,10,21,12,09,16.20
2018,10,21,12,10,16.20
2018,10,21,12,11,16.30
2018,10,21,12,12,16.30
2018,10,21,12,13,16.40
2018,10,21,12,14,16.40
2018,10,21,12,15,16.40
2018,10,21,12,16,16.30
2018,10,21,12,17,16.30
2018,10,21,12,18,16.30
2018,10,21,12,19,16.30
2018,10,21,12,20,16.20
2018,10,21,12,21,16.20
2018,10,21,12,22,16.10
2018,10,21,12,23,16.10
2018,10,21,12,24,16.20
2018,10,21,12,25,16.20
2018,10,21,12,26,16.10
2018,10,21,12,27,16.20
2018,10,21,12,28,16.10
2018,10,21,12,29,16.10
2018,10,21,12,30,16.10
2018,10,21,12,31,16.10
2018,10,21,12,32,16.10
2018,10,21,12,33,16.20
2018,10,21,12,34,16.10
2018,10,21,12,35,16.20
2018,10,21,12,36,16.20
2018,10,21,12,37,16.20
2018,10,21,12,38,16.20
2018,10,21,12,39,16.20
2018,10,21,12,40,16.20
2018,10,21,12,41,16.30
2018,10,21,12,42,16.30
2018,10,21,12,43,16.30
2018,10,21,12,44,16.30
2018,10,21,12,45,16.30
2018,10,21,12,46,16.30
2018,10,21,12,47,16.30
2018,10,21,12,48,16.30
2018,10,21,12,49,16.30
2018,10,21,12,50,16.30
2018,10,21,12,51,16.30
2018,10,21,12,52,16.20
2018,10,21,12,53,16.20
2018,10,21,12,54,16.20
2018,10,21,12,55,16.10
2018,10,21,12,56,16.20
2018,10,21,12,57,16.20
2018,10,21,12,58,16.20
2018,10,21,12,59,16.20
2018,10,21,13,00,16.30
2018,10,21,13,01,16.30
2018,10,21,13,02,16.30
2018,10,21,13,03,16.30
2018,10,21,13,04,16.40
2018,10,21,13,05,16.40
2018,10,21,13,06,16.50
2018,10,21,13,07,16.60
2018,10,21,13,08,16.60
2018,10,21,13,09,16.70
2018,10,21,13,10,16.70
2018,10,21,13,11,16.80
2018,10,21,13,12,16.80
2018,10,21,13,13,16.80
2018,10,21,13,14,16.90
2018,10,21,13,15,16.90
2018,10,21,13,16,16.90
2018,10,21,13,17,16.90
2018,10,21,13,18,16.90
2018,10,21,13,19,16.90
2018,10,21,13,20,16.90
2018,10,21,13,21,16.90
2018,10,21,13,22,16.90
2018,10,21,13,23,16.90
2018,10,21,13,24,16.90
2018,10,21,13,25,16.80
2018,10,21,13,26,16.90
2018,10,21,13,27,16.90
2018,10,21,13,28,17.10
2018,10,21,13,29,17.10
2018,10,21,13,30,17.20
2018,10,21,13,31,17.20
2018,10,21,13,32,17.20
2018,10,21,13,33,17.10
2018,10,21,13,34,17.10
2018,10,21,13,35,17.10
2018,10,21,13,36,17.10
2018,10,21,13,37,17.00
2018,10,21,13,38,17.00
2018,10,21,13,39,17.00
2018,10,21,13,40,17.00
2018,10,21,13,41,17.00
2018,10,21,13,42,17.00
2018,10,21,13,43,16.90
2018,10,21,13,44,16.80
2018,10,21,13,45,16.60
2018,10,21,13,46,16.50
2018,10,21,13,47,16.40
2018,10,21,13,48,16.30
2018,10,21,13,49,16.30
2018,10,21,13,50,16.20
2018,10,21,13,51,16.10
2018,10,21,13,52,16.10
2018,10,21,13,53,16.00
2018,10,21,13,54,15.90
2018,10,21,13,55,15.90
2018,10,21,13,56,15.80
2018,10,21,13,57,15.80
2018,10,21,13,58,15.80
2018,10,21,13,59,15.70
2018,10,21,14,00,15.70
2018,10,21,14,01,15.70
2018,10,21,14,02,15.70
2018,10,21,14,03,15.70
2018,10,21,14,04,15.70
2018,10,21,14,05,15.70
2018,10,21,14,06,15.70
2018,10,21,14,07,15.70
2018,10,21,14,08,15.70
2018,10,21,14,09,15.70
2018,10,21,14,10,15.70
2018,10,21,14,11,15.70
2018,10,21,14,12,15.70
2018,10,21,14,13,15.70
2018,10,21,14,14,15.70
2018,10,21,14,15,15.80
2018,10,21,14,16,15.80
2018,10,21,14,17,15.80
2018,10,21,14,18,15.90
2018,10,21,14,19,15.90
2018,10,21,14,20,16.00
2018,10,21,14,21,16.00
2018,10,21,14,22,16.10
2018,10,21,14,23,16.10
2018,10,21,14,24,16.20
2018,10,21,14,25,16.20
2018,10,21,14,26,16.30
2018,10,21,14,27,16.30
2018,10,21,14,28,16.30
2018,10,21,14,29,16.40
2018,10,21,14,30,16.40
2018,10,21,14,31,16.40
2018,10,21,14,32,16.40
2018,10,21,14,33,16.40
2018,10,21,14,34,16.40
2018,10,21,14,35,16.40
2018,10,21,14,36,16.40
2018,10,21,14,37,16.40
2018,10,21,14,38,16.50
2018,10,21,14,39,16.40
2018,10,21,14,40,16.40
2018,10,21,14,41,16.40
2018,10,21,14,42,16.40
2018,10,21,14,43,16.40
2018,10,21,14,44,16.40
2018,10,21,14,45,16.50
2018,10,21,14,46,16.50
2018,10,21,14,47,16.60
2018,10,21,14,48,16.60
2018,10,21,14,49,16.60
2018,10,21,14,50,16.60
2018,10,21,14,51,16.60
2018,10,21,14,52,16.60
2018,10,21,14,53,16.50
2018,10,21,14,54,16.50
2018,10,21,14,55,16.60
2018,10,21,14,56,16.60
2018,10,21,14,57,16.80
2018,10,21,14,58,16.80
2018,10,21,14,59,16.80
2018,10,21,15,00,16.90
2018,10,21,15,01,16.80
2018,10,21,15,02,16.80
2018,10,21,15,03,16.90
2018,10,21,15,04,16.90
2018,10,21,15,05,16.90
2018,10,21,15,06,16.90
2018,10,21,15,07,16.90
2018,10,21,15,08,16.90
2018,10,21,15,09,16.90
2018,10,21,15,10,16.90
2018,10,21,15,11,17.00
2018,10,21,15,12,17.00
2018,10,21,15,13,17.00
2018,10,21,15,14,17.00
2018,10,21,15,15,17.00
2018,10,21,15,16,17.00
2018,10,21,15,17,16.90
2018,10,21,15,18,17.00
2018,10,21,15,19,17.00
2018,10,21,15,20,17.00
2018,10,21,15,21,16.90
2018,10,21,15,22,16.90
2018,10,21,15,23,16.90
2018,10,21,15,24,16.90
2018,10,21,15,25,16.90
2018,10,21,15,26,16.90
2018,10,21,15,27,16.80
2018,10,21,15,28,16.80
2018,10,21,15,29,16.80
2018,10,21,15,30,16.80
2018,10,21,15,31,16.70
2018,10,21,15,32,16.80
2018,10,21,15,33,16.70
2018,10,21,15,34,16.70
2018,10,21,15,35,16.70
2018,10,21,15,36,16.70
2018,10,21,15,37,16.70
2018,10,21,15,38,16.70
2018,10,21,15,39,16.70
2018,10,21,15,40,16.70
2018,10,21,15,41,16.70
2018,10,21,15,42,16.70
2018,10,21,15,43,16.70
2018,10,21,15,44,16.70
2018,10,21,15,45,16.70
2018,10,21,15,46,16.70
2018,10,21,15,47,16.70
2018,10,21,15,48,16.70
2018,10,21,15,49,16.70
2018,10,21,15,50,16.80
2018,10,21,15,51,16.80
2018,10,21,15,52,16.80
2018,10,21,15,53,16.80
2018,10,21,15,54,16.80
2018,10,21,15,55,16.70
2018,10,21,15,56,16.70
2018,10,21,15,57,16.70
2018,10,21,15,58,16.70
2018,10,21,15,59,16.70
2018,10,21,16,00,16.70
2018,10,21,16,01,16.70
2018,10,21,16,02,16.60
2018,10,21,16,03,16.60
2018,10,21,16,04,16.60
2018,10,21,16,05,16.60
2018,10,21,16,06,16.50
2018,10,21,16,07,16.50
2018,10,21,16,08,16.50
2018,10,21,16,09,16.40
2018,10,21,16,10,16.40
2018,10,21,16,11,16.40
2018,10,21,16,12,16.30
2018,10,21,16,13,16.30
2018,10,21,16,14,16.20
2018,10,21,16,15,16.10
2018,10,21,16,16,16.10
2018,10,21,16,17,16.00
2018,10,21,16,18,16.00
2018,10,21,16,19,15.90
2018,10,21,16,20,15.90
2018,10,21,16,21,15.90
2018,10,21,16,22,15.80
2018,10,21,16,23,15.80
2018,10,21,16,24,15.80
2018,10,21,16,25,15.80
2018,10,21,16,26,15.80
2018,10,21,16,27,15.70
2018,10,21,16,28,15.70
2018,10,21,16,29,15.70
2018,10,21,16,30,15.70
2018,10,21,16,31,15.70
2018,10,21,16,32,15.70
2018,10,21,16,33,15.70
2018,10,21,16,34,15.70
2018,10,21,16,35,15.80
2018,10,21,16,36,15.80
2018,10,21,16,37,15.80
2018,10,21,16,38,15.80
2018,10,21,16,39,15.70
2018,10,21,16,40,15.70
2018,10,21,16,41,15.70
2018,10,21,16,42,15.70
2018,10,21,16,43,15.70
2018,10,21,16,44,15.60
2018,10,21,16,45,15.60
2018,10,21,16,46,15.60
2018,10,21,16,47,15.60
2018,10,21,16,48,15.60
2018,10,21,16,49,15.60
2018,10,21,16,50,15.60
2018,10,21,16,51,15.60
2018,10,21,16,52,15.60
2018,10,21,16,53,15.60
2018,10,21,16,54,15.60
2018,10,21,16,55,15.60
2018,10,21,16,56,15.60
2018,10,21,16,57,15.60
2018,10,21,16,58,15.70
2018,10,21,16,59,15.70
2018,10,21,17,00,15.70
2018,10,21,17,01,15.70
2018,10,21,17,02,15.70
2018,10,21,17,03,15.70
2018,10,21,17,04,15.80
2018,10,21,17,05,15.80
2018,10,21,17,06,15.80
2018,10,21,17,07,15.90
2018,10,21,17,08,15.90
2018,10,21,17,09,15.90
2018,10,21,17,10,15.90
2018,10,21,17,11,15.90
2018,10,21,17,12,15.90
2018,10,21,17,13,15.90
2018,10,21,17,14,15.90
2018,10,21,17,15,15.90
2018,10,21,17,16,15.90
2018,10,21,17,17,15.90
2018,10,21,17,18,15.80
2018,10,21,17,19,15.80
2018,10,21,17,20,15.80
2018,10,21,17,21,15.70
2018,10,21,17,22,15.70
2018,10,21,17,23,15.60
2018,10,21,17,24,15.60
2018,10,21,17,25,15.50
2018,10,21,17,26,15.50
2018,10,21,17,27,15.40
2018,10,21,17,28,15.30
2018,10,21,17,29,15.30
2018,10,21,17,30,15.20
2018,10,21,17,31,15.20
2018,10,21,17,32,15.10
2018,10,21,17,33,15.00
2018,10,21,17,34,15.00
2018,10,21,17,35,14.90
2018,10,21,17,36,14.80
2018,10,21,17,37,14.80
2018,10,21,17,38,14.80
2018,10,21,17,39,14.70
2018,10,21,17,40,14.70
2018,10,21,17,41,14.60
2018,10,21,17,42,14.60
2018,10,21,17,43,14.60
2018,10,21,17,44,14.50
2018,10,21,17,45,14.50
2018,10,21,17,46,14.40